Moree Airport

Airport
ICAO code: 
YMOR
IATA Code: 
MRZ
Summary
ICAO Region: 
APAC
Territory: 
Location: 
Moree, New South Wales
Serving: 
Moree
Elevation: 
701 ft
Coordinates: 
Aerial View: 
29° 29' 51.67" S, 149° 50' 34.856" E
Metar
Observation
YMOR 052000Z AUTO 08008KT 9999 // NCD 19/13 Q1015
Station
Moree Airport
Date/Time
2021-12-05 20:00:00
Wind direction
80°
Wind speed
08 kts
Lowest cloud amount
no clouds detected
Temperature
19°C
Dew point
13°C
Humidity
68%
QNH
1015 hPa
Weather condition
n/a

Moree Airport is an airport in Moree, New South Wales, Australia. The airport is 5 km from the city center.

Climatology

Humid “subtropical” climate (Köppen climate classification Cfa)

Runways

Designator Length Width Surface Rops
5/23 977 18 GVL Yes/Yes
1/19 1613 30 ASP Yes/Yes
Airport map: 
Aerial View: 

SKYbrary Partners:

Safety knowledge contributed by: